Location: Ebendorf
(52.1827°N, 11.5706°E)
Time: 10:08:06
(UTC+00:00)

Cosmos 371 Rocket - Pass Details

Date: 15 May 2021
Orbit: 684 x 699 km, 74.0° (Epoch: 20 June)

Event Time Altitude Azimuth Distance (km) Brightness Sun altitude
Exits shadow 00:15:28 23° 154° (SSE) 1,454 4.5 -17.5°
Maximum altitude 00:17:47 37° 104° (ESE) 1,088 4.3 -17.4°
Drops below altitude 10° 00:22:15 10° 39° (NE) 2,172 6.9 -17.2°
Sets 00:24:43 0° 31° (NNE) 3,096 8.2 -17.1°
